GSAT-16

Last updated on Sun Sep 20 2026 00:02:58 GMT+0000 (Coordinated Universal Time)

1 40332U 14078A 26261.93402209 .00000080 00000+0 00000+0 0 9994 2 40332 0.0187 182.5138 0005884 289.9928 276.6906 1.00274185 43056
UTC large
Height (km)
Speed (km/s)
/
Latitude / Longitude
Inclination (degrees)
Orbital Period (minutes)
Azimuth
Elevation
Range (km)
Doppler Factor

Next 0 passes for location: London (51.5072 / 0.1276)

No passes found over London.
GSAT-16